sat.trackr.live / text

‹ back to catalog

STARLINK-34189

NORAD 64121 · 2025-110AB

PAYLOAD ACTIVE UNKNOWN

§ Identity

Operator
Country
US
Launch date
2025-05-23
Launch site
AFWTR
Launch vehicle
Mass (kg)
RCS (m²)

Purposes: comms

External: N2YO · Heavens-Above · Gunter

§ Orbital elements

Epoch: 2026-09-20T12:35:22.861824Z

Period
94.01 min
Inclination
53.1565°
Eccentricity
0.0002409
Mean motion
15.31719383 rev/d
Perigee alt
469.0 km
Apogee alt
472.3 km
Semi-major
6,848.8 km
B*
2.6618e-4
RAAN
201.6896°
Arg perigee
69.7233°
Mean anomaly
290.4027°
Rev number
7,571

§ Raw data

STARLINK-341891 64121U 25110AB  26263.52457016  .00007908  00000+0  26618-3 0  99912 64121  53.1565 201.6896 0002409  69.7233 290.4027 15.31719383 75713

JSON: /api/v1/satellites/64121 · /tle

For live sub-satellite position, see the globe view (requires WebGL).

§ Visibility from observer

Set your observer location to see the next 7 days of passes ≥ 10°. The values pass through the URL so the page stays shareable.

No JS? Fill the form by hand. The geolocation button needs JavaScript.